Wind_Speed
23 24 24 23 23 23 23 24 24 23 22 21 21 21 22 21 21 20 19 20 20 20 20 19 19 18 18 18 17 16 15 15 15 15 14 14 14 14 14 15 15 16 16
25 26 26 25 24 24 24 25 24 24 23 23 22 22 23 23 23 22 22 21 21 22 22 22 20 20 20 19 19 18 18 18 18 17 17 17 17 16 17 17 18 18 19
25 25 25 26 27 26 26 26 25 25 25 25 25 24 24 24 24 23 24 23 24 24 23 22 22 22 21 21 21 20 20 20 20 20 20 20 20 20 20 20 20 21 21
26 26 27 27 28 27 27 27 26 26 27 27 26 25 25 25 25 25 25 25 25 24 23 23 23 23 23 23 23 22 22 22 22 22 23 23 23 23 22 23 23 24 24
27 28 29 29 29 30 29 29 28 28 27 28 28 28 27 26 26 26 26 26 25 24 24 24 24 25 24 24 24 24 24 24 24 24 25 24 24 24 25 25 25 26 27
29 29 30 30 31 30 30 30 31 30 29 29 29 28 28 28 27 28 28 27 26 25 25 25 26 26 25 25 25 25 26 26 25 26 27 27 27 27 27 28 28 29 30
30 30 31 31 32 32 32 32 31 30 30 31 31 30 29 29 28 29 29 28 27 27 27 27 27 27 26 27 27 27 28 28 28 29 29 30 30 30 30 31 31 32 33
31 31 32 33 33 33 33 33 33 32 32 32 32 32 32 31 30 30 30 29 28 29 29 28 28 28 28 29 29 30 30 30 31 31 31 31 32 32 32 32 33 34 35
32 32 33 34 34 33 33 33 33 32 32 33 33 32 31 31 31 31 31 31 30 30 31 30 30 30 29 30 31 32 33 33 33 33 33 33 33 34 34 35 36 37 37
31 32 32 33 34 33 32 32 32 32 31 32 32 32 32 32 32 31 31 31 31 31 32 32 32 32 32 32 32 33 33 34 35 35 35 35 36 36 37 37 37 38 38
31 31 31 31 32 31 31 31 32 32 31 31 31 32 32 33 32 31 30 31 31 31 31 32 32 33 32 32 33 33 34 35 35 36 37 37 38 38 39 39 38 38 38
31 31 31 31 31 31 31 31 32 31 31 31 32 32 32 32 31 31 31 30 31 31 31 32 32 32 32 33 33 33 33 34 35 37 38 38 38 39 39 38 38 37 37
30 31 32 31 31 31 31 30 31 31 31 31 32 32 32 32 31 31 31 30 31 32 31 31 31 32 32 33 33 35 34 34 36 38 39 39 39 39 39 38 38 38 37
31 31 32 31 31 31 31 31 31 31 31 30 30 31 31 32 33 32 32 31 32 32 32 31 31 31 33 33 34 35 35 36 36 37 38 37 38 37 37 37 37 37 37
31 31 31 31 31 31 31 31 31 31 31 30 30 30 31 31 31 32 32 32 32 33 32 32 32 32 32 33 35 35 35 35 36 36 36 35 35 35 34 34 34 35 36
31 31 31 31 31 31 31 31 31 31 31 30 31 32 31 31 32 32 32 32 33 33 33 33 33 34 34 34 35 35 35 36 37 36 35 35 34 33 33 33 34 35 36
30 30 30 31 31 30 30 31 30 30 30 30 31 31 31 31 32 32 32 32 33 33 33 33 33 33 33 35 36 36 35 35 34 33 33 33 33 34 34 34 34 35 35
28 29 28 28 29 29 29 30 30 30 30 30 29 29 30 31 32 32 32 32 32 32 32 32 33 33 34 35 35 34 34 34 33 33 33 34 34 34 35 34 35 35 36
26 26 26 25 26 27 27 27 28 28 28 28 28 27 27 28 29 29 30 30 30 31 31 32 32 33 33 33 33 33 33 34 33 34 33 33 33 34 34 35 35 35 35
24 24 24 24 24 24 25 25 25 25 26 26 25 26 26 27 27 28 28 29 30 30 30 30 30 30 31 32 33 33 33 33 33 33 32 32 32 32 33 33 33 32 32
22 22 22 23 23 23 23 23 23 23 23 23 23 23 24 25 26 26 27 28 28 28 28 28 29 30 30 30 30 31 31 31 31 30 31 31 30 31 31 30 30 29 29
21 21 21 21 21 21 21 21 21 20 20 20 20 21 21 22 23 24 25 26 26 26 26 27 27 27 28 29 28 28 28 28 28 29 29 29 28 28 27 27 27 27 26
17 17 17 17 17 18 17 17 17 18 18 17 18 19 20 21 21 22 22 22 22 23 23 24 25 25 26 26 26 26 26 25 26 26 25 25 25 25 25 24 24 23 23
14 14 14 14 14 14 14 15 15 15 16 16 16 16 17 17 18 19 19 20 21 21 21 22 23 24 24 23 23 23 24 24 24 23 23 23 22 21 21 20 20 19 19
11 11 11 11 11 11 12 12 13 13 14 14 14 14 14 15 15 16 16 17 17 18 19 20 20 21 21 21 21 21 21 20 20 20 20 20 19 19 18 18 18 18 18
7 7 7 8 8 8 9 9 10 10 10 10 10 10 11 11 12 13 13 13 13 14 15 16 16 16 16 16 16 16 16 16 16 17 17 17 17 17 16 16 16 16 17
Wind_Direction
265 261 261 263 263 263 262 262 261 260 259 261 260 257 255 258 259 259 257 256 260 257 255 256 256 255 253 253 253 255 255 256 259 261 262 262 264 266 269 270 270 270 271
268 266 262 263 265 266 264 262 261 261 262 262 263 260 259 259 260 257 255 254 257 256 254 254 256 256 254 254 256 256 257 259 260 261 262 263 265 266 269 272 272 272 272
270 267 266 266 267 269 265 265 265 264 263 265 266 264 262 262 260 257 255 255 256 255 253 252 255 256 255 256 256 257 257 259 260 263 264 264 265 267 269 271 273 274 274
271 270 269 267 267 268 266 264 268 267 265 265 265 264 263 262 260 260 258 257 258 257 255 255 257 257 256 256 255 257 258 259 262 265 265 266 267 269 269 271 274 275 276
271 270 269 268 269 269 265 264 264 267 266 264 263 265 264 262 261 262 262 261 262 261 259 258 259 258 258 258 256 257 259 260 263 264 265 268 270 271 271 272 274 276 277
273 271 270 269 268 269 267 266 265 266 266 265 263 265 265 263 261 261 263 262 262 261 259 258 260 258 258 258 256 258 259 261 264 266 265 266 269 272 273 274 275 276 277
273 272 272 270 269 269 268 267 266 265 265 264 263 264 265 264 263 261 261 262 262 261 259 258 261 260 258 256 257 258 259 261 266 269 267 267 269 272 274 276 277 278 280
274 274 274 273 271 269 269 268 267 266 265 263 263 263 262 263 263 261 261 261 262 260 259 259 259 260 260 259 258 260 260 262 266 269 269 269 271 273 275 276 278 279 281
274 273 273 273 271 271 271 269 268 267 265 261 260 260 260 262 261 261 260 260 261 260 260 260 260 261 261 261 262 263 263 263 265 268 269 270 272 275 276 277 280 281 281
274 273 273 272 271 269 269 270 269 268 265 262 261 260 260 260 260 260 259 260 260 259 260 261 261 263 262 261 262 263 263 265 266 269 271 272 274 275 277 278 280 280 280
274 273 273 271 270 268 267 268 269 270 267 263 262 262 262 261 262 260 260 259 259 259 259 261 263 263 262 261 263 264 264 265 267 270 270 270 274 276 278 279 278 279 280
275 273 273 271 271 270 268 268 270 270 270 268 266 265 263 263 260 259 260 259 261 261 261 263 263 263 263 264 267 267 267 268 268 269 270 271 275 279 280 279 279 279 281
274 272 273 272 272 272 270 268 270 271 270 270 267 265 263 261 258 259 259 260 262 263 264 265 267 267 266 268 266 266 268 271 270 270 272 273 276 278 279 279 280 282 283
276 274 274 272 272 272 271 270 269 271 271 270 269 265 263 261 259 260 261 261 263 263 264 266 268 269 270 271 269 268 269 271 273 274 276 276 278 279 279 280 281 283 283
279 277 275 273 272 270 270 271 270 271 271 268 266 265 263 262 260 260 260 261 262 264 264 264 266 268 269 270 271 271 272 273 275 276 276 278 281 281 282 281 282 284 285
278 277 276 274 272 271 270 269 270 271 270 268 265 264 263 262 261 262 261 261 262 263 264 264 267 269 270 272 271 271 272 274 275 276 278 279 281 282 282 283 286 288 288
278 277 276 275 274 272 270 269 269 268 269 269 266 263 262 262 262 264 265 263 263 264 265 266 269 270 270 270 272 271 272 276 277 280 282 284 285 284 285 287 288 288 289
280 278 276 275 275 274 271 269 268 268 268 268 268 266 264 263 263 266 267 266 265 267 268 269 270 269 269 270 272 272 275 279 281 283 284 285 285 286 287 288 289 289 290
282 279 278 277 276 275 274 272 270 268 267 267 267 266 267 265 265 266 266 267 268 268 268 268 269 269 270 270 272 275 277 278 280 282 283 284 285 287 289 289 289 291 291
282 279 277 277 277 275 274 274 272 268 267 267 266 265 265 265 265 266 267 268 268 267 268 268 269 270 272 273 274 274 276 278 279 281 283 285 286 288 290 290 290 291 291
282 280 278 277 277 276 275 273 270 268 267 266 266 265 265 265 264 265 266 267 268 268 267 269 271 273 274 275 275 275 276 278 280 282 285 285 287 289 290 290 291 291 292
282 281 281 280 278 277 275 272 270 269 267 265 267 267 267 268 267 267 267 268 268 268 271 271 273 276 275 275 274 276 278 279 282 284 286 287 289 290 289 290 291 292 293
284 284 283 281 279 277 274 271 270 268 268 265 266 268 267 266 266 266 266 266 267 269 272 273 274 276 276 275 276 278 281 282 283 285 287 289 290 290 290 290 291 293 292
289 286 286 285 282 279 275 268 265 267 265 266 271 272 269 266 267 268 269 269 270 271 273 274 275 276 277 278 280 283 284 283 284 284 286 288 288 289 292 291 293 295 293
292 288 289 288 285 281 280 274 269 268 269 272 274 277 277 275 274 273 274 275 274 274 275 277 280 279 280 280 280 281 283 284 283 284 284 286 288 290 291 293 293 294 294
296 295 296 298 293 289 284 281 273 271 274 276 278 282 281 280 279 277 278 281 280 280 281 280 280 280 280 280 280 281 283 284 284 284 285 287 290 292 292 293 293 294 295
Height
5864 5864 5865 5866 5866 5867 5867 5868 5868 5869 5870 5872 5872 5873 5874 5875 5875 5877 5878 5879 5880 5881 5882 5883 5884 5885 5886 5886 5887 5888 5889 5889 5890 5890 5891 5891 5892 5892 5892 5892 5892 5892 5892
5859 5860 5860 5860 5861 5862 5862 5863 5863 5864 5866 5867 5868 5869 5870 5871 5871 5872 5873 5872 5875 5876 5877 5879 5879 5880 5881 5883 5884 5885 5885 5886 5886 5887 5887 5888 5888 5888 5888 5888 5889 5889 5888
5854 5854 5855 5856 5856 5857 5857 5857 5857 5858 5860 5862 5863 5864 5865 5866 5867 5867 5868 5868 5870 5871 5872 5873 5874 5876 5877 5878 5879 5880 5881 5882 5882 5883 5883 5883 5884 5884 5884 5884 5884 5884 5884
5849 5849 5850 5851 5851 5852 5851 5852 5853 5853 5854 5856 5857 5858 5859 5860 5861 5862 5863 5864 5864 5865 5866 5867 5869 5871 5872 5873 5874 5875 5876 5877 5878 5878 5878 5879 5879 5879 5879 5879 5879 5879 5879
5843 5844 5844 5845 5846 5846 5846 5847 5847 5848 5849 5850 5851 5852 5853 5854 5856 5856 5857 5857 5858 5859 5860 5862 5864 5866 5867 5868 5869 5870 5871 5872 5872 5873 5873 5873 5874 5874 5874 5874 5874 5874 5873
5837 5838 5838 5839 5839 5839 5840 5840 5840 5842 5843 5844 5845 5846 5847 5848 5849 5850 5851 5852 5853 5854 5854 5856 5858 5860 5861 5862 5863 5863 5865 5866 5866 5867 5867 5868 5868 5868 5868 5868 5868 5867 5867
5831 5831 5831 5832 5832 5833 5833 5833 5834 5835 5836 5837 5838 5840 5841 5842 5843 5844 5845 5847 5848 5849 5850 5851 5852 5853 5854 5855 5856 5857 5858 5859 5860 5860 5861 5861 5862 5862 5862 5861 5861 5860 5860
5825 5825 5825 5825 5825 5826 5826 5826 5827 5827 5829 5830 5832 5833 5834 5836 5836 5837 5839 5841 5842 5842 5843 5845 5846 5847 5848 5849 5850 5851 5852 5852 5853 5853 5854 5854 5854 5854 5854 5854 5854 5853 5852
5818 5818 5818 5818 5818 5818 5819 5819 5820 5821 5821 5823 5824 5825 5827 5828 5830 5831 5832 5833 5835 5836 5837 5838 5839 5840 5841 5842 5843 5844 5845 5845 5846 5846 5846 5847 5847 5847 5847 5846 5846 5845 5844
5811 5811 5811 5811 5811 5811 5812 5812 5813 5814 5814 5815 5817 5817 5819 5820 5822 5824 5825 5826 5827 5829 5830 5831 5831 5833 5834 5835 5836 5837 5838 5838 5838 5839 5839 5839 5839 5839 5838 5838 5837 5836 5835
5804 5804 5804 5803 5803 5804 5804 5805 5806 5806 5807 5808 5809 5810 5811 5813 5814 5816 5818 5819 5820 5821 5823 5824 5825 5826 5827 5828 5829 5829 5830 5831 5831 5831 5831 5831 5831 5830 5830 5829 5828 5827 5826
5796 5796 5796 5796 5796 5796 5797 5798 5798 5799 5800 5801 5801 5802 5804 5805 5807 5808 5810 5811 5812 5814 5815 5816 5817 5818 5819 5820 5821 5822 5822 5823 5823 5823 5823 5823 5822 5822 5821 5820 5819 5818 5817
5789 5789 5789 5788 5788 5789 5789 5790 5791 5792 5793 5793 5794 5795 5796 5798 5799 5801 5802 5804 5805 5806 5807 5809 5810 5811 5812 5813 5813 5814 5814 5815 5815 5815 5815 5814 5814 5813 5812 5811 5810 5809 5808
5781 5781 5781 5781 5781 5781 5782 5783 5783 5784 5785 5786 5787 5787 5789 5790 5792 5793 5795 5796 5797 5799 5800 5801 5802 5803 5804 5805 5805 5806 5806 5806 5806 5806 5806 5806 5805 5804 5803 5802 5801 5800 5799
5773 5773 5773 5773 5773 5773 5774 5775 5775 5776 5777 5778 5779 5780 5781 5782 5784 5785 5787 5788 5790 5791 5792 5794 5795 5795 5796 5797 5797 5797 5798 5798 5797 5797 5797 5797 5796 5796 5795 5794 5792 5791 5789
5765 5765 5764 5765 5765 5765 5766 5767 5767 5768 5769 5770 5771 5772 5773 5775 5776 5777 5779 5780 5782 5783 5784 5786 5787 5788 5788 5789 5789 5789 5789 5789 5789 5789 5788 5788 5787 5787 5786 5785 5783 5782 5780
5757 5757 5756 5757 5757 5757 5758 5759 5760 5761 5761 5762 5763 5764 5766 5767 5768 5770 5771 5772 5774 5775 5776 5777 5778 5779 5780 5780 5780 5781 5781 5781 5781 5780 5780 5780 5779 5778 5777 5776 5774 5773 5771
5749 5749 5749 5749 5749 5749 5750 5750 5751 5752 5753 5754 5755 5756 5757 5759 5761 5762 5764 5765 5766 5767 5768 5769 5770 5771 5771 5771 5772 5772 5772 5772 5772 5772 5771 5771 5770 5769 5768 5766 5765 5763 5761
5742 5742 5742 5742 5742 5742 5742 5743 5743 5744 5745 5746 5748 5749 5750 5752 5753 5755 5756 5757 5758 5759 5760 5761 5761 5762 5762 5763 5763 5764 5764 5764 5763 5763 5763 5762 5761 5760 5758 5757 5755 5753 5751
5736 5735 5735 5735 5735 5735 5736 5736 5737 5737 5738 5739 5740 5742 5743 5745 5746 5748 5749 5750 5751 5752 5753 5753 5754 5754 5755 5755 5755 5755 5755 5755 5755 5755 5754 5753 5752 5751 5749 5748 5746 5744 5742
5730 5729 5729 5729 5729 5729 5729 5730 5730 5731 5732 5733 5734 5735 5736 5738 5739 5741 5742 5743 5744 5744 5745 5746 5746 5747 5747 5747 5747 5747 5747 5747 5747 5746 5745 5744 5743 5742 5740 5739 5737 5736 5734
5724 5724 5723 5723 5723 5723 5723 5724 5724 5725 5726 5727 5728 5729 5730 5731 5733 5734 5735 5736 5737 5737 5738 5739 5739 5739 5740 5740 5739 5739 5739 5739 5738 5738 5737 5736 5735 5734 5732 5731 5730 5728 5726
5719 5719 5718 5718 5718 5718 5718 5719 5719 5720 5721 5722 5723 5724 5725 5726 5727 5728 5728 5729 5730 5731 5732 5732 5732 5733 5733 5733 5732 5732 5732 5731 5731 5730 5729 5728 5728 5727 5725 5724 5723 5721 5720
5715 5715 5714 5714 5714 5714 5714 5714 5715 5716 5716 5717 5718 5719 5720 5721 5721 5722 5723 5723 5724 5725 5725 5726 5726 5726 5726 5726 5726 5726 5725 5725 5724 5723 5723 5722 5721 5720 5719 5718 5716 5715 5714
5712 5712 5711 5711 5711 5711 5711 5711 5712 5713 5713 5714 5715 5715 5716 5716 5717 5717 5718 5718 5719 5719 5719 5719 5720 5720 5720 5720 5720 5719 5719 5718 5718 5717 5717 5716 5715 5714 5713 5712 5711 5710 5709
5710 5710 5709 5709 5709 5709 5709 5709 5709 5710 5711 5711 5712 5712 5712 5713 5713 5713 5714 5714 5714 5714 5715 5715 5715 5715 5715 5715 5714 5714 5713 5713 5712 5712 5711 5711 5710 5709 5709 5708 5707 5705 5704